,,Stat5,,Stat1,,Stat2,,Stat3,,Stat4,,Wind1,,Wind1,
time,status,PA1M_AVG,status,PR1M_SUM,status,RH1M_AVG,status,SR1M_AVG,status,TA1M_AVG,status,W1dAve1m,status,W1sAve1m,
2002-07-07, 00:00:00,VALID,918.801,VALID,0,VALID,94.1115,VALID,-0.0169808,VALID,20.5855,VALID,358,VALID,0.800881,
2002-07-07, 00:01:00,VALID,918.792,VALID,0,VALID,94.1636,VALID,0,VALID,20.5656,VALID,15,VALID,1.10998,
2002-07-07, 00:02:00,VALID,918.782,VALID,0,VALID,94.1966,VALID,-0.0169808,VALID,20.5464,VALID,356,VALID,0.883413,
2002-07-07, 00:03:00,VALID,918.753,VALID,0,VALID,94.245,VALID,0,VALID,20.5338,VALID,14,VALID,1.34258,
2002-07-07, 00:04:00,VALID,918.752,VALID,0,VALID,94.2691,VALID,-0.0339617,VALID,20.5077,VALID,349,VALID,1.10234,
2002-07-07, 00:05:00,VALID,918.746,VALID,0,VALID,94.3225,VALID,-0.0679233,VALID,20.4885,VALID,358,VALID,0.768092,
2002-07-07, 00:06:00,VALID,918.745,VALID,0,VALID,94.362,VALID,-0.0339617,VALID,20.4657,VALID,356,VALID,0.709736,
2002-07-07, 00:07:00,VALID,918.716,VALID,0,VALID,94.5692,VALID,0,VALID,20.4465,VALID,357,VALID,0.779447,
2002-07-07, 00:08:00,VALID,918.72,VALID,0,VALID,94.6608,VALID,-0.0339617,VALID,20.4468,VALID,16,VALID,1.14042,
2002-07-07, 00:09:00,VALID,918.709,VALID,0,VALID,94.6824,VALID,-0.0169808,VALID,20.4433,VALID,13,VALID,0.868273,
2002-07-07, 00:10:00,VALID,918.723,VALID,0,VALID,94.6621,VALID,0,VALID,20.4433,VALID,10,VALID,1.00547,
2002-07-07, 00:11:00,VALID,918.703,VALID,0,VALID,94.6633,VALID,-0.0169808,VALID,20.4368,VALID,15,VALID,1.10786,
2002-07-07, 00:12:00,VALID,918.687,VALID,0,VALID,94.7104,VALID,-0.0509425,VALID,20.447,VALID,8,VALID,1.0998,
2002-07-07, 00:13:00,VALID,918.68,VALID,0,VALID,94.7689,VALID,-0.0339617,VALID,20.453,VALID,13,VALID,1.31785,
2002-07-07, 00:14:00,VALID,918.677,VALID,0,VALID,94.6862,VALID,-0.0169808,VALID,20.4697,VALID,1,VALID,1.20904,
2002-07-07, 00:15:00,VALID,918.664,VALID,0,VALID,94.6837,VALID,-0.0169808,VALID,20.4293,VALID,9,VALID,1.25616,
2002-07-07, 00:16:00,VALID,918.654,VALID,0,VALID,94.7015,VALID,-0.0169808,VALID,20.4532,VALID,348,VALID,0.932155,
2002-07-07, 00:17:00,VALID,918.657,VALID,0,VALID,94.6608,VALID,-0.0509425,VALID,20.4627,VALID,353,VALID,0.838199,
2002-07-07, 00:18:00,VALID,918.678,VALID,0,VALID,94.6506,VALID,-0.0339617,VALID,20.4756,VALID,13,VALID,0.992188,
2002-07-07, 00:19:00,VALID,918.683,VALID,0,VALID,94.5781,VALID,0.0849042,VALID,20.4738,VALID,17,VALID,0.933293,
2002-07-07, 00:20:00,VALID,918.685,VALID,0,VALID,94.465,VALID,0.0339617,VALID,20.4711,VALID,16,VALID,1.38501,
2002-07-07, 00:21:00,VALID,918.673,VALID,0,VALID,94.3963,VALID,0.101885,VALID,20.4805,VALID,359,VALID,0.736909,
2002-07-07, 00:22:00,VALID,918.67,VALID,0,VALID,94.3938,VALID,0.0849042,VALID,20.5002,VALID,12,VALID,0.698191,
2002-07-07, 00:23:00,VALID,918.676,VALID,0,VALID,94.3632,VALID,0.0509425,VALID,20.5096,VALID,17,VALID,0.770765,
2002-07-07, 00:24:00,VALID,918.66,VALID,0,VALID,94.2984,VALID,0.0339617,VALID,20.5198,VALID,10,VALID,0.500953,
2002-07-07, 00:25:00,VALID,918.646,VALID,0,VALID,94.2984,VALID,0,VALID,20.5265,VALID,13,VALID,0.68727,
2002-07-07, 00:26:00,VALID,918.644,VALID,0,VALID,94.2017,VALID,0.0679233,VALID,20.523,VALID,11,VALID,0.704181,
2002-07-07, 00:27:00,VALID,918.633,VALID,0,VALID,94.217,VALID,0.0679233,VALID,20.5265,VALID,7,VALID,0.421186,
2002-07-07, 00:28:00,VALID,918.626,VALID,0,VALID,94.1598,VALID,0.0679233,VALID,20.5295,VALID,12,VALID,0.551339,
2002-07-07, 00:29:00,VALID,918.617,VALID,0,VALID,94.0352,VALID,0.0339617,VALID,20.5258,VALID,6,VALID,0.618189,
2002-07-07, 00:30:00,VALID,918.594,VALID,0,VALID,94.053,VALID,0.0679233,VALID,20.5357,VALID,31,VALID,0.590372,
2002-07-07, 00:31:00,VALID,918.591,VALID,0,VALID,94.0148,VALID,0.0679233,VALID,20.5317,VALID,32,VALID,0.155222,
2002-07-07, 00:32:00,VALID,918.568,VALID,0,VALID,93.9792,VALID,0.0679233,VALID,20.5292,VALID,32,VALID,0.0767857,
2002-07-07, 00:33:00,VALID,918.556,VALID,0,VALID,93.9042,VALID,0.0679233,VALID,20.5133,VALID,32,VALID,0.132212,
2002-07-07, 00:34:00,VALID,918.548,VALID,0,VALID,93.8495,VALID,-0.0509425,VALID,20.5015,VALID,32,VALID,0.0576746,
2002-07-07, 00:35:00,VALID,918.546,VALID,0,VALID,93.7618,VALID,-0.0339617,VALID,20.4691,VALID,32,VALID,0.000868056,
2002-07-07, 00:36:00,VALID,918.523,VALID,0,VALID,93.9067,VALID,-0.0339617,VALID,20.4532,VALID,32,VALID,0.233553,
2002-07-07, 00:37:00,VALID,918.492,VALID,0,VALID,93.9716,VALID,-0.0679233,VALID,20.4371,VALID,32,VALID,0.194141,
2002-07-07, 00:38:00,VALID,918.469,VALID,0,VALID,93.9372,VALID,-0.0679233,VALID,20.4115,VALID,32,VALID,0,
2002-07-07, 00:39:00,VALID,918.454,VALID,0,VALID,93.8597,VALID,-0.0339617,VALID,20.3792,VALID,32,VALID,0.326172,
2002-07-07, 00:40:00,VALID,918.429,VALID,0,VALID,93.9614,VALID,-0.0679233,VALID,20.3173,VALID,32,VALID,0.571832,
2002-07-07, 00:41:00,VALID,918.415,VALID,0,VALID,94.6214,VALID,-0.0339617,VALID,20.3076,VALID,29,VALID,1.10759,
2002-07-07, 00:42:00,VALID,918.368,VALID,0,VALID,94.6837,VALID,-0.0679233,VALID,20.3374,VALID,32,VALID,0.888302,
2002-07-07, 00:43:00,VALID,918.338,VALID,0,VALID,94.4764,VALID,-0.0679233,VALID,20.3213,VALID,35,VALID,0.731291,
2002-07-07, 00:44:00,VALID,918.309,VALID,0,VALID,94.0441,VALID,-0.101885,VALID,20.2661,VALID,40,VALID,0.725946,
2002-07-07, 00:45:00,VALID,918.278,VALID,0,VALID,93.9067,VALID,-0.0509425,VALID,20.1595,VALID,22,VALID,0.801829,
2002-07-07, 00:46:00,VALID,918.281,VALID,0,VALID,94.334,VALID,-0.0339617,VALID,20.1207,VALID,3,VALID,0.51011,
2002-07-07, 00:47:00,VALID,918.273,VALID,0,VALID,94.292,VALID,-0.0339617,VALID,20.0591,VALID,4,VALID,0.218539,
2002-07-07, 00:48:00,VALID,918.272,VALID,0,VALID,94.9075,VALID,-0.0679233,VALID,20.0399,VALID,11,VALID,0.613281,
2002-07-07, 00:49:00,VALID,918.255,VALID,0,VALID,95.2623,VALID,0,VALID,20.0593,VALID,17,VALID,0.560714,
2002-07-07, 00:50:00,VALID,918.228,VALID,0,VALID,95.3068,VALID,-0.0169808,VALID,20.0596,VALID,27,VALID,0.818309,
2002-07-07, 00:51:00,VALID,918.209,VALID,0,VALID,95.1313,VALID,-0.0339617,VALID,20.0143,VALID,30,VALID,0.508235,
2002-07-07, 00:52:00,VALID,918.205,VALID,0,VALID,95.2292,VALID,-0.0679233,VALID,19.9753,VALID,36,VALID,0.365954,
2002-07-07, 00:53:00,VALID,918.223,VALID,0,VALID,95.308,VALID,-0.0509425,VALID,19.9535,VALID,360,VALID,0.240402,
2002-07-07, 00:54:00,VALID,918.248,VALID,0,VALID,95.5369,VALID,-0.0509425,VALID,19.9502,VALID,346,VALID,0.472756,
2002-07-07, 00:55:00,VALID,918.257,VALID,0,VALID,95.6755,VALID,-0.0509425,VALID,19.9502,VALID,7,VALID,0.522518,
2002-07-07, 00:56:00,VALID,918.276,VALID,0,VALID,95.5687,VALID,-0.0679233,VALID,19.9438,VALID,2,VALID,0.488932,
2002-07-07, 00:57:00,VALID,918.302,VALID,0,VALID,95.5026,VALID,-0.0509425,VALID,19.9144,VALID,355,VALID,0.436061,
2002-07-07, 00:58:00,VALID,918.316,VALID,0,VALID,95.8205,VALID,-0.0679233,VALID,19.9537,VALID,355,VALID,0.381445,
2002-07-07, 00:59:00,VALID,918.322,VALID,0,VALID,95.851,VALID,-0.0169808,VALID,19.9599,VALID,355,VALID,0.0544922,
2002-07-07, 01:00:00,VALID,918.349,VALID,0,VALID,95.701,VALID,-0.0339617,VALID,19.9562,VALID,355,VALID,0.18967,
2002-07-07, 01:01:00,VALID,918.344,VALID,0,VALID,95.5306,VALID,-0.0849042,VALID,19.9405,VALID,25,VALID,0.563802,
2002-07-07, 01:02:00,VALID,918.319,VALID,0,VALID,95.5191,VALID,-0.0679233,VALID,19.9276,VALID,33,VALID,0.429018,
2002-07-07, 01:03:00,VALID,918.304,VALID,0,VALID,95.5916,VALID,-0.0509425,VALID,19.9239,VALID,20,VALID,0.45397,
2002-07-07, 01:04:00,VALID,918.277,VALID,0,VALID,95.631,VALID,0.0169808,VALID,19.9191,VALID,13,VALID,0.564556,
2002-07-07, 01:05:00,VALID,918.246,VALID,0,VALID,95.542,VALID,0.0339617,VALID,19.9162,VALID,13,VALID,0.732936,
2002-07-07, 01:06:00,VALID,918.221,VALID,0,VALID,95.6577,VALID,0.0679233,VALID,19.9027,VALID,13,VALID,1.26925,
2002-07-07, 01:07:00,VALID,918.179,VALID,0,VALID,95.851,VALID,0.0679233,VALID,19.9835,VALID,9,VALID,0.683594,
2002-07-07, 01:08:00,VALID,918.166,VALID,0,VALID,95.5357,VALID,0.0679233,VALID,20.0195,VALID,16,VALID,0.537584,
2002-07-07, 01:09:00,VALID,918.148,VALID,0,VALID,95.1059,VALID,0.0679233,VALID,20.0258,VALID,26,VALID,0.358915,
2002-07-07, 01:10:00,VALID,918.123,VALID,0,VALID,94.7651,VALID,0.0169808,VALID,20.0198,VALID,26,VALID,0.571875,
2002-07-07, 01:11:00,VALID,918.086,VALID,0,VALID,94.6684,VALID,0.0679233,VALID,19.9843,VALID,26,VALID,0.455128,
2002-07-07, 01:12:00,VALID,918.084,VALID,0,VALID,94.5145,VALID,0,VALID,19.9353,VALID,26,VALID,0.64337,
2002-07-07, 01:13:00,VALID,918.069,VALID,0,VALID,94.5781,VALID,-0.0339617,VALID,19.9117,VALID,26,VALID,0.0421464,
2002-07-07, 01:14:00,VALID,918.058,VALID,0,VALID,94.8668,VALID,-0.0679233,VALID,19.9144,VALID,27,VALID,0.0488839,
2002-07-07, 01:15:00,VALID,918.019,VALID,0,VALID,94.7485,VALID,-0.0679233,VALID,19.8983,VALID,19,VALID,1.25901,
2002-07-07, 01:16:00,VALID,917.971,VALID,0,VALID,95.0563,VALID,-0.0849042,VALID,19.947,VALID,17,VALID,0.737132,
2002-07-07, 01:17:00,VALID,917.927,VALID,0,VALID,94.8757,VALID,-0.0679233,VALID,20.0307,VALID,337,VALID,0.838976,
2002-07-07, 01:18:00,VALID,917.937,VALID,0,VALID,94.9126,VALID,-0.0679233,VALID,20.0921,VALID,288,VALID,0.70148,
2002-07-07, 01:19:00,VALID,917.935,VALID,0,VALID,94.9418,VALID,-0.0679233,VALID,20.1118,VALID,282,VALID,0.229687,
2002-07-07, 01:20:00,VALID,917.921,VALID,0,VALID,94.9316,VALID,-0.101885,VALID,20.1185,VALID,314,VALID,0.27793,
2002-07-07, 01:21:00,VALID,917.898,VALID,0,VALID,94.9278,VALID,0,VALID,20.111,VALID,20,VALID,0.492622,
2002-07-07, 01:22:00,VALID,917.884,VALID,0,VALID,94.9189,VALID,-0.0339617,VALID,20.1147,VALID,29,VALID,0.756293,
2002-07-07, 01:23:00,VALID,917.874,VALID,0,VALID,94.8719,VALID,-0.0679233,VALID,20.1307,VALID,43,VALID,0.837723,
2002-07-07, 01:24:00,VALID,917.881,VALID,0,VALID,94.2907,VALID,-0.0509425,VALID,20.1438,VALID,36,VALID,0.951014,
2002-07-07, 01:25:00,VALID,917.901,VALID,0,VALID,93.6384,VALID,-0.0339617,VALID,20.1085,VALID,20,VALID,0.38898,
2002-07-07, 01:26:00,VALID,917.883,VALID,0,VALID,94.1674,VALID,-0.0679233,VALID,20.1048,VALID,360,VALID,0.364515,
2002-07-07, 01:27:00,VALID,917.878,VALID,0,VALID,94.2119,VALID,-0.0679233,VALID,20.1346,VALID,25,VALID,0.397675,
2002-07-07, 01:28:00,VALID,917.889,VALID,0,VALID,94.245,VALID,-0.0169808,VALID,20.1182,VALID,259,VALID,0.963925,
2002-07-07, 01:29:00,VALID,917.888,VALID,0,VALID,94.7078,VALID,-0.101885,VALID,20.1244,VALID,200,VALID,0.796875,
2002-07-07, 01:30:00,VALID,917.853,VALID,0,VALID,93.9601,VALID,-0.0509425,VALID,20.0956,VALID,39,VALID,0.991498,
2002-07-07, 01:31:00,VALID,917.827,VALID,0,VALID,93.6066,VALID,-0.0679233,VALID,20.0377,VALID,24,VALID,0.764955,
2002-07-07, 01:32:00,VALID,917.815,VALID,0,VALID,93.5634,VALID,-0.0339617,VALID,19.9661,VALID,14,VALID,0.976362,
2002-07-07, 01:33:00,VALID,917.827,VALID,0,VALID,94.1649,VALID,-0.0679233,VALID,19.9438,VALID,31,VALID,1.04054,
2002-07-07, 01:34:00,VALID,917.8,VALID,0,VALID,93.7554,VALID,-0.0679233,VALID,19.8662,VALID,15,VALID,0.72574,
2002-07-07, 01:35:00,VALID,917.794,VALID,0,VALID,94.0631,VALID,-0.0849042,VALID,19.8086,VALID,315,VALID,0.716071,
2002-07-07, 01:36:00,VALID,917.738,VALID,0,VALID,94.4599,VALID,-0.0509425,VALID,19.8829,VALID,18,VALID,1.39443,
2002-07-07, 01:37:00,VALID,917.709,VALID,0,VALID,94.4103,VALID,-0.0509425,VALID,19.9214,VALID,18,VALID,0.942325,
2002-07-07, 01:38:00,VALID,917.72,VALID,0,VALID,94.3416,VALID,-0.0509425,VALID,19.9537,VALID,27,VALID,0.946832,
2002-07-07, 01:39:00,VALID,917.711,VALID,0,VALID,93.7389,VALID,-0.0679233,VALID,19.9607,VALID,9,VALID,0.740748,
2002-07-07, 01:40:00,VALID,917.736,VALID,0,VALID,93.7923,VALID,-0.0509425,VALID,19.9182,VALID,357,VALID,0.674609,
2002-07-07, 01:41:00,VALID,917.724,VALID,0,VALID,94.3251,VALID,-0.0679233,VALID,19.9368,VALID,3,VALID,0.748633,
2002-07-07, 01:42:00,VALID,917.722,VALID,0,VALID,94.2666,VALID,-0.0849042,VALID,19.9699,VALID,5,VALID,0.140625,
2002-07-07, 01:43:00,VALID,917.697,VALID,0,VALID,93.9169,VALID,-0.0679233,VALID,19.9639,VALID,16,VALID,0.479384,
2002-07-07, 01:44:00,VALID,917.666,VALID,0,VALID,93.7173,VALID,-0.0679233,VALID,19.9343,VALID,13,VALID,0.869196,
2002-07-07, 01:45:00,VALID,917.65,VALID,0,VALID,93.145,VALID,-0.0849042,VALID,19.8635,VALID,16,VALID,0.639992,
2002-07-07, 01:46:00,VALID,917.632,VALID,0,VALID,93.3485,VALID,-0.0339617,VALID,19.7596,VALID,38,VALID,0.513363,
2002-07-07, 01:47:00,VALID,917.62,VALID,0,VALID,93.5736,VALID,-0.0509425,VALID,19.7049,VALID,45,VALID,0.53824,
2002-07-07, 01:48:00,VALID,917.617,VALID,0,VALID,94.011,VALID,-0.0339617,VALID,19.6627,VALID,51,VALID,0.0569741,
2002-07-07, 01:49:00,VALID,917.583,VALID,0,VALID,94.7778,VALID,0.0339617,VALID,19.6587,VALID,51,VALID,0.0257353,
2002-07-07, 01:50:00,VALID,917.569,VALID,0,VALID,95.158,VALID,0.101885,VALID,19.6967,VALID,73,VALID,0.311655,
2002-07-07, 01:51:00,VALID,917.51,VALID,0,VALID,94.3607,VALID,0.0849042,VALID,19.7131,VALID,291,VALID,0.901195,
2002-07-07, 01:52:00,VALID,917.505,VALID,0,VALID,94.2895,VALID,0.0849042,VALID,19.6841,VALID,197,VALID,0.642187,
2002-07-07, 01:53:00,VALID,917.478,VALID,0,VALID,94.8464,VALID,0.0849042,VALID,19.7164,VALID,180,VALID,0.329728,
2002-07-07, 01:54:00,VALID,917.446,VALID,0,VALID,94.8948,VALID,0.0339617,VALID,19.7457,VALID,175,VALID,0.0133024,
2002-07-07, 01:55:00,VALID,917.452,VALID,0,VALID,94.5794,VALID,0.0169808,VALID,19.7422,VALID,256,VALID,0.0711349,
2002-07-07, 01:56:00,VALID,917.457,VALID,0,VALID,94.5463,VALID,0.0169808,VALID,19.7387,VALID,257,VALID,0.0258929,
2002-07-07, 01:57:00,VALID,917.417,VALID,0,VALID,94.1903,VALID,0.0509425,VALID,19.7104,VALID,273,VALID,0.158253,
2002-07-07, 01:58:00,VALID,917.401,VALID,0,VALID,94.5196,VALID,0,VALID,19.6746,VALID,16,VALID,0.852022,
2002-07-07, 01:59:00,VALID,917.382,VALID,0,VALID,94.7956,VALID,0,VALID,19.7201,VALID,23,VALID,0.747396,
2002-07-07, 02:00:00,VALID,917.382,VALID,0,VALID,94.245,VALID,0.0339617,VALID,19.7034,VALID,20,VALID,0.640214,
2002-07-07, 02:01:00,VALID,917.354,VALID,0,VALID,94.189,VALID,0,VALID,19.6259,VALID,22,VALID,0.985352,
2002-07-07, 02:02:00,VALID,917.337,VALID,0,VALID,94.7511,VALID,0.0339617,VALID,19.6458,VALID,23,VALID,1.19082,
2002-07-07, 02:03:00,VALID,917.308,VALID,0,VALID,94.6519,VALID,-0.0169808,VALID,19.6232,VALID,14,VALID,1.0829,
2002-07-07, 02:04:00,VALID,917.308,VALID,0,VALID,94.9939,VALID,-0.0679233,VALID,19.6503,VALID,15,VALID,1.16949,
2002-07-07, 02:05:00,VALID,917.305,VALID,0,VALID,94.7167,VALID,-0.0679233,VALID,19.6085,VALID,20,VALID,1.22656,
2002-07-07, 02:06:00,VALID,917.305,VALID,0,VALID,95.2864,VALID,-0.0849042,VALID,19.6281,VALID,26,VALID,1.40984,
2002-07-07, 02:07:00,VALID,917.297,VALID,0,VALID,95.397,VALID,-0.0679233,VALID,19.6669,VALID,25,VALID,1.08964,
2002-07-07, 02:08:00,VALID,917.298,VALID,0,VALID,95.1491,VALID,-0.0679233,VALID,19.6602,VALID,25,VALID,0.482525,
2002-07-07, 02:09:00,VALID,917.299,VALID,0,VALID,95.0652,VALID,-0.0339617,VALID,19.6378,VALID,26,VALID,0.0461128,
2002-07-07, 02:10:00,VALID,917.287,VALID,0,VALID,95.0715,VALID,-0.0339617,VALID,19.6085,VALID,26,VALID,0,
2002-07-07, 02:11:00,VALID,917.272,VALID,0,VALID,95.1097,VALID,-0.0509425,VALID,19.6016,VALID,26,VALID,0.0177365,
2002-07-07, 02:12:00,VALID,917.262,VALID,0,VALID,95.0537,VALID,-0.0679233,VALID,19.5961,VALID,26,VALID,0.00551471,
2002-07-07, 02:13:00,VALID,917.266,VALID,0,VALID,95.219,VALID,-0.0339617,VALID,19.5794,VALID,26,VALID,0.00736607,
2002-07-07, 02:14:00,VALID,917.251,VALID,0,VALID,95.3932,VALID,-0.0849042,VALID,19.5993,VALID,99,VALID,0.495793,
2002-07-07, 02:15:00,VALID,917.245,VALID,0,VALID,95.1491,VALID,-0.101885,VALID,19.5797,VALID,168,VALID,0.41174,
2002-07-07, 02:16:00,VALID,917.215,VALID,0,VALID,94.6481,VALID,-0.0679233,VALID,19.5218,VALID,301,VALID,0.343544,
2002-07-07, 02:17:00,VALID,917.216,VALID,0,VALID,94.0174,VALID,-0.0509425,VALID,19.3948,VALID,6,VALID,0.134375,
2002-07-07, 02:18:00,VALID,917.196,VALID,0,VALID,94.2017,VALID,-0.0509425,VALID,19.3143,VALID,7,VALID,0.332933,
2002-07-07, 02:19:00,VALID,917.195,VALID,0,VALID,94.4637,VALID,0.0169808,VALID,19.2651,VALID,14,VALID,0.340763,
2002-07-07, 02:20:00,VALID,917.186,VALID,0,VALID,94.9494,VALID,0,VALID,19.2363,VALID,42,VALID,0.600911,
2002-07-07, 02:21:00,VALID,917.172,VALID,0,VALID,94.938,VALID,0,VALID,19.1941,VALID,42,VALID,0.427837,
2002-07-07, 02:22:00,VALID,917.166,VALID,0,VALID,94.9049,VALID,0,VALID,19.1232,VALID,43,VALID,0.370117,
2002-07-07, 02:23:00,VALID,917.144,VALID,0,VALID,95.9769,VALID,0,VALID,19.1362,VALID,58,VALID,0.707422,
2002-07-07, 02:24:00,VALID,917.112,VALID,0,VALID,96.2884,VALID,0,VALID,19.1779,VALID,65,VALID,0.704644,
2002-07-07, 02:25:00,VALID,917.085,VALID,0,VALID,95.9006,VALID,0,VALID,19.1553,VALID,59,VALID,0.421224,
2002-07-07, 02:26:00,VALID,917.078,VALID,0,VALID,95.7302,VALID,0,VALID,19.0937,VALID,56,VALID,0.0174107,
2002-07-07, 02:27:00,VALID,917.048,VALID,0,VALID,95.6285,VALID,0.0339617,VALID,19.0487,VALID,56,VALID,0,
2002-07-07, 02:28:00,VALID,917.029,VALID,0,VALID,95.9044,VALID,0.0169808,VALID,19.0095,VALID,57,VALID,0.0865543,
2002-07-07, 02:29:00,VALID,917.022,VALID,0,VALID,96.5529,VALID,0.0339617,VALID,19.0489,VALID,103,VALID,0.363076,
2002-07-07, 02:30:00,VALID,917.012,VALID,0,VALID,96.6966,VALID,0.0169808,VALID,19.081,VALID,128,VALID,0.20827,
2002-07-07, 02:31:00,VALID,916.993,VALID,0,VALID,96.8136,VALID,0.0339617,VALID,19.1071,VALID,99,VALID,0.307675,
2002-07-07, 02:32:00,VALID,916.992,VALID,0,VALID,96.881,VALID,0.0169808,VALID,19.1399,VALID,31,VALID,0.34734,
2002-07-07, 02:33:00,VALID,916.983,VALID,0,VALID,96.7945,VALID,0.0339617,VALID,19.1332,VALID,27,VALID,0.170726,
2002-07-07, 02:34:00,VALID,916.975,VALID,0,VALID,96.8543,VALID,0,VALID,19.1265,VALID,27,VALID,0.0178571,
2002-07-07, 02:35:00,VALID,916.974,VALID,0,VALID,97.0374,VALID,0,VALID,19.1553,VALID,26,VALID,0.363381,
2002-07-07, 02:36:00,VALID,916.953,VALID,0,VALID,96.9929,VALID,0.0339617,VALID,19.1811,VALID,23,VALID,0.605574,
2002-07-07, 02:37:00,VALID,916.941,VALID,0,VALID,96.5033,VALID,0.0169808,VALID,19.0972,VALID,24,VALID,0.707237,
2002-07-07, 02:38:00,VALID,916.903,VALID,0,VALID,97.0247,VALID,0,VALID,19.1528,VALID,21,VALID,0.944866,
2002-07-07, 02:39:00,VALID,916.896,VALID,0,VALID,97.0158,VALID,0,VALID,19.1657,VALID,13,VALID,0.923478,
2002-07-07, 02:40:00,VALID,916.859,VALID,0,VALID,96.6877,VALID,0.0509425,VALID,19.1391,VALID,20,VALID,1.16843,
2002-07-07, 02:41:00,VALID,916.856,VALID,0,VALID,96.4983,VALID,0.0169808,VALID,19.0946,VALID,1,VALID,1.22027,
2002-07-07, 02:42:00,VALID,916.854,VALID,0,VALID,97.3019,VALID,0.0169808,VALID,19.204,VALID,323,VALID,0.663446,
2002-07-07, 02:43:00,VALID,916.839,VALID,0,VALID,97.5639,VALID,0.0679233,VALID,19.2907,VALID,312,VALID,0.0277344,
2002-07-07, 02:44:00,VALID,916.816,VALID,0,VALID,97.293,VALID,0.0339617,VALID,19.327,VALID,312,VALID,0.000976563,
2002-07-07, 02:45:00,VALID,916.789,VALID,0,VALID,97.0107,VALID,0.0169808,VALID,19.2947,VALID,354,VALID,0.274306,
2002-07-07, 02:46:00,VALID,916.79,VALID,0,VALID,96.5453,VALID,0.0339617,VALID,19.2298,VALID,20,VALID,0.181641,
2002-07-07, 02:47:00,VALID,916.79,VALID,0,VALID,96.4538,VALID,0.0509425,VALID,19.1811,VALID,21,VALID,0.34442,
2002-07-07, 02:48:00,VALID,916.798,VALID,0,VALID,96.6712,VALID,-0.0169808,VALID,19.195,VALID,7,VALID,0.484797,
2002-07-07, 02:49:00,VALID,916.795,VALID,0,VALID,96.8874,VALID,-0.0679233,VALID,19.2186,VALID,7,VALID,0.354235,
2002-07-07, 02:50:00,VALID,916.774,VALID,0,VALID,96.633,VALID,-0.0679233,VALID,19.1791,VALID,7,VALID,0.582442,
2002-07-07, 02:51:00,VALID,916.763,VALID,0,VALID,96.2554,VALID,-0.0679233,VALID,19.0949,VALID,10,VALID,0.987805,
2002-07-07, 02:52:00,VALID,916.753,VALID,0,VALID,97.0819,VALID,-0.0849042,VALID,19.124,VALID,17,VALID,0.96898,
2002-07-07, 02:53:00,VALID,916.727,VALID,0,VALID,97.4812,VALID,-0.0849042,VALID,19.202,VALID,24,VALID,0.92272,
2002-07-07, 02:54:00,VALID,916.718,VALID,0,VALID,97.368,VALID,-0.0339617,VALID,19.2246,VALID,25,VALID,0.712546,
2002-07-07, 02:55:00,VALID,916.718,VALID,0,VALID,97.218,VALID,-0.0679233,VALID,19.238,VALID,17,VALID,0.233482,
2002-07-07, 02:56:00,VALID,916.736,VALID,0,VALID,97.2752,VALID,-0.0849042,VALID,19.2407,VALID,354,VALID,0.516627,
2002-07-07, 02:57:00,VALID,916.728,VALID,0,VALID,97.6529,VALID,-0.101885,VALID,19.3476,VALID,324,VALID,0.434544,
2002-07-07, 02:58:00,VALID,916.704,VALID,0,VALID,97.6134,VALID,-0.0849042,VALID,19.396,VALID,11,VALID,0.590461,
2002-07-07, 02:59:00,VALID,916.702,VALID,0,VALID,97.4278,VALID,-0.101885,VALID,19.4057,VALID,19,VALID,0.93817,
2002-07-07, 03:00:00,VALID,916.695,VALID,0,VALID,97.0539,VALID,-0.0849042,VALID,19.3834,VALID,12,VALID,1.04527,
2002-07-07, 03:01:00,VALID,916.697,VALID,0,VALID,97.2549,VALID,-0.101885,VALID,19.4027,VALID,15,VALID,1.24219,
2002-07-07, 03:02:00,VALID,916.693,VALID,0,VALID,97.382,VALID,-0.101885,VALID,19.4581,VALID,14,VALID,1.22635,
2002-07-07, 03:03:00,VALID,916.725,VALID,0,VALID,97.4125,VALID,-0.101885,VALID,19.4994,VALID,12,VALID,0.934827,
2002-07-07, 03:04:00,VALID,916.727,VALID,0,VALID,97.1836,VALID,-0.0169808,VALID,19.5091,VALID,10,VALID,0.951367,
2002-07-07, 03:05:00,VALID,916.718,VALID,0,VALID,97.0005,VALID,-0.0849042,VALID,19.4932,VALID,18,VALID,0.992969,
2002-07-07, 03:06:00,VALID,916.709,VALID,0,VALID,96.427,VALID,-0.0849042,VALID,19.4057,VALID,15,VALID,0.640625,
2002-07-07, 03:07:00,VALID,916.712,VALID,0,VALID,96.5237,VALID,-0.101885,VALID,19.3642,VALID,11,VALID,0.373698,
2002-07-07, 03:08:00,VALID,916.683,VALID,0,VALID,96.7208,VALID,-0.101885,VALID,19.3605,VALID,18,VALID,0.361161,
2002-07-07, 03:09:00,VALID,916.64,VALID,0,VALID,96.9853,VALID,-0.118866,VALID,19.3834,VALID,37,VALID,0.661318,
2002-07-07, 03:10:00,VALID,916.614,VALID,0,VALID,97.3477,VALID,-0.101885,VALID,19.4385,VALID,45,VALID,0.70148,
2002-07-07, 03:11:00,VALID,916.614,VALID,0,VALID,97.2981,VALID,-0.0509425,VALID,19.4703,VALID,33,VALID,0.744449,
2002-07-07, 03:12:00,VALID,916.65,VALID,0,VALID,97.1188,VALID,-0.101885,VALID,19.4415,VALID,12,VALID,0.56955,
2002-07-07, 03:13:00,VALID,916.649,VALID,0,VALID,97.2485,VALID,-0.0849042,VALID,19.4475,VALID,10,VALID,0.444164,
2002-07-07, 03:14:00,VALID,916.653,VALID,0,VALID,97.2167,VALID,-0.0679233,VALID,19.4572,VALID,9,VALID,0.2481,
2002-07-07, 03:15:00,VALID,916.669,VALID,0,VALID,97.307,VALID,-0.0339617,VALID,19.4867,VALID,341,VALID,0.573759,
2002-07-07, 03:16:00,VALID,916.686,VALID,0,VALID,97.4748,VALID,-0.101885,VALID,19.5382,VALID,322,VALID,0.288393,
2002-07-07, 03:17:00,VALID,916.678,VALID,0,VALID,97.5168,VALID,-0.0849042,VALID,19.5643,VALID,4,VALID,0.516827,
2002-07-07, 03:18:00,VALID,916.674,VALID,0,VALID,97.5575,VALID,-0.0679233,VALID,19.6025,VALID,58,VALID,0.562711,
2002-07-07, 03:19:00,VALID,916.656,VALID,0,VALID,97.3057,VALID,0.0339617,VALID,19.5752,VALID,45,VALID,0.521382,
2002-07-07, 03:20:00,VALID,916.637,VALID,0,VALID,97.1239,VALID,0,VALID,19.5491,VALID,37,VALID,0.302009,
2002-07-07, 03:21:00,VALID,916.605,VALID,0,VALID,96.9777,VALID,0.0339617,VALID,19.5305,VALID,12,VALID,0.316306,
2002-07-07, 03:22:00,VALID,916.578,VALID,0,VALID,97.1875,VALID,0,VALID,19.5233,VALID,357,VALID,0.207031,
2002-07-07, 03:23:00,VALID,916.539,VALID,0,VALID,97.2282,VALID,0,VALID,19.5397,VALID,357,VALID,0.0360243,
2002-07-07, 03:24:00,VALID,916.505,VALID,0,VALID,97.3032,VALID,0.0169808,VALID,19.5496,VALID,357,VALID,0.214638,
2002-07-07, 03:25:00,VALID,916.507,VALID,0,VALID,97.3858,VALID,0.0169808,VALID,19.5598,VALID,28,VALID,0.549023,
2002-07-07, 03:26:00,VALID,916.505,VALID,0,VALID,97.3502,VALID,0,VALID,19.5695,VALID,57,VALID,0.721484,
2002-07-07, 03:27:00,VALID,916.509,VALID,0,VALID,97.41,VALID,0.0169808,VALID,19.5563,VALID,49,VALID,0.472222,
2002-07-07, 03:28:00,VALID,916.491,VALID,0,VALID,97.2739,VALID,0,VALID,19.5596,VALID,64,VALID,0.444878,
2002-07-07, 03:29:00,VALID,916.474,VALID,0,VALID,97.2638,VALID,0,VALID,19.5531,VALID,70,VALID,0.533929,
2002-07-07, 03:30:00,VALID,916.474,VALID,0,VALID,97.1798,VALID,0,VALID,19.5466,VALID,69,VALID,0.507813,
2002-07-07, 03:31:00,VALID,916.482,VALID,0,VALID,96.4258,VALID,-0.0169808,VALID,19.4202,VALID,54,VALID,0.212788,